Weather History for Holland, MI

Change the Weather History Date:

Wednesday, February 20, 2013

  Actual Average Record
Temperature  
Mean Temperature 22 °F 29 °F  
Max Temperature 25 °F 36 °F 57 °F (1954)
Min Temperature 19 °F 23 °F -8 °F (1966)
Degree Days  
Heating Degree Days 43 36  
Month to date heating degree days 807 752  
Since 1 July heating degree days 3983 4226  
Cooling Degree Days 0 0  
Month to date cooling degree days 0 0  
Year to date cooling degree days 0 0  
Moisture  
Dew Point 13 °F    
Average Humidity 67    
Maximum Humidity 73    
Minimum Humidity 60    
Precipitation  
Precipitation 0.01 in 0.08 in 0.86 in (2002)
Month to date precipitation 1.83 1.19  
Year to date precipitation 4.99 3.28  
Sea Level Pressure  
Sea Level Pressure 30.15 in    
Wind  
Wind Speed 12 mph (NW)    
Max Wind Speed 16 mph    
Max Gust Speed 24 mph    
Visibility 3 miles    
Events Snow    
T = Trace of Precipitation, MM = Missing Value Source: NWS Daily Summary

Daily Weather History Graph

Daily Weather History Graph

Search for Another Location

Airport:

Trip Planner

Search our weather history database for the weather conditions in past years. The results will help you decide how hot, cold, wet, or windy it might be!

Date:

Astronomy

Feb. 20, 2013 Rise Set
Actual Time 7:33 AM EST 6:22 PM EST
Civil Twilight 7:05 AM EST 6:51 PM EST
Nautical Twilight 6:32 AM EST 7:24 PM EST
Astronomical Twilight 5:59 AM EST 7:57 PM EST
Moon 1:39 PM EST (2/20) 3:57 AM EST (2/20)
Length of Visible Light 11h 46m
Length of Day
10h 49m
Waxing Gibbous, 76% of the Moon is Illuminated
Feb 20
Waxing Gibbous
Feb 25
Full
Mar 4
Last Quarter
Mar 11
New
Mar 19
First Quarter

Hourly Weather History & Observations

Time (EST) Temp. Windchill Dew Point Humidity Pressure Visibility Wind Dir Wind Speed Gust Speed Precip Events Conditions
12:09 AM 19.4 °F 6.0 °F 10.4 °F 68% 30.01 in 2.5 mi WNW 13.8 mph 24.2 mph 0.00 in Snow Light Snow
12:28 AM 19.4 °F 7.2 °F 10.4 °F 68% 30.01 in 5.0 mi WNW 11.5 mph 20.7 mph 0.00 in Snow Light Snow
12:37 AM 19.4 °F 6.6 °F 10.4 °F 68% 30.02 in 1.8 mi WNW 12.7 mph 24.2 mph 0.00 in Snow Light Snow
12:50 AM 19.4 °F 6.0 °F 10.4 °F 68% 30.02 in 2.0 mi WNW 13.8 mph 19.6 mph 0.00 in Snow Light Snow
1:02 AM 19.4 °F 7.2 °F 12.2 °F 74% 30.02 in 2.0 mi NW 11.5 mph - 0.00 in Snow Light Snow
1:05 AM 19.4 °F 6.6 °F 12.2 °F 74% 30.02 in 3.0 mi NW 12.7 mph - 0.00 in Snow Light Snow
1:26 AM 19.4 °F 7.2 °F 10.4 °F 68% 30.03 in 2.0 mi NW 11.5 mph 23.0 mph 0.00 in Snow Light Snow
1:32 AM 19.4 °F 7.9 °F 12.2 °F 74% 30.03 in 1.2 mi NW 10.4 mph 18.4 mph 0.00 in Snow Light Snow
1:40 AM 19.4 °F 6.6 °F 12.2 °F 74% 30.04 in 1.2 mi NW 12.7 mph 24.2 mph 0.01 in Snow Light Snow
1:45 AM 19.4 °F 6.0 °F 10.4 °F 68% 30.04 in 2.0 mi NW 13.8 mph 24.2 mph 0.01 in Snow Light Snow
1:51 AM 19.4 °F 6.0 °F 10.4 °F 68% 30.04 in 4.0 mi WNW 13.8 mph 21.9 mph 0.01 in Snow Light Snow
1:53 AM 19.0 °F 5.6 °F 10.9 °F 71% 30.08 in 3.0 mi WNW 13.8 mph 20.7 mph 0.01 in Snow Light Snow
2:03 AM 19.4 °F 6.6 °F 10.4 °F 68% 30.05 in 1.8 mi WNW 12.7 mph 19.6 mph 0.00 in Snow Light Snow
2:09 AM 19.4 °F 7.9 °F 10.4 °F 68% 30.05 in 1.2 mi WNW 10.4 mph 24.2 mph 0.00 in Snow Light Snow
2:17 AM 19.4 °F 6.0 °F 12.2 °F 74% 30.05 in 1.5 mi WNW 13.8 mph 20.7 mph 0.00 in Snow Light Snow
2:32 AM 19.4 °F 7.9 °F 10.4 °F 68% 30.05 in 2.5 mi WNW 10.4 mph 19.6 mph 0.00 in Snow Light Snow
2:41 AM 19.4 °F 7.9 °F 12.2 °F 74% 30.05 in 1.5 mi WNW 10.4 mph 20.7 mph 0.00 in Snow Light Snow
2:44 AM 19.4 °F 7.9 °F 12.2 °F 74% 30.06 in 2.0 mi WNW 10.4 mph 19.6 mph 0.00 in Snow Light Snow
2:51 AM 19.4 °F 5.5 °F 10.4 °F 68% 30.06 in 5.0 mi NW 15.0 mph 20.7 mph 0.00 in Snow Light Snow
2:52 AM 19.0 °F 6.1 °F 10.9 °F 71% 30.09 in 4.0 mi NW 12.7 mph 20.7 mph 0.00 in Snow Light Snow
2:59 AM 19.4 °F 7.2 °F 10.4 °F 68% 30.06 in 1.8 mi NW 11.5 mph 20.7 mph 0.00 in Snow Light Snow
3:09 AM 19.4 °F 6.0 °F 10.4 °F 68% 30.06 in 2.5 mi NW 13.8 mph 20.7 mph 0.00 in Snow Light Snow
3:19 AM 19.4 °F 6.0 °F 10.4 °F 68% 30.06 in 4.0 mi WNW 13.8 mph 19.6 mph 0.00 in Snow Light Snow
3:24 AM 19.4 °F 7.2 °F 12.2 °F 74% 30.06 in 1.8 mi NW 11.5 mph 20.7 mph 0.00 in Snow Light Snow
3:30 AM 19.4 °F 6.6 °F 12.2 °F 74% 30.06 in 2.0 mi NW 12.7 mph 21.9 mph 0.00 in Snow Light Snow
3:53 AM 19.0 °F 7.5 °F 10.9 °F 71% 30.11 in 4.0 mi NW 10.4 mph 20.7 mph 0.00 in Snow Light Snow
4:11 AM 19.4 °F 7.2 °F 10.4 °F 68% 30.08 in 2.0 mi NW 11.5 mph 21.9 mph 0.00 in Snow Light Snow
4:23 AM 19.4 °F 6.0 °F 12.2 °F 74% 30.08 in 3.0 mi NW 13.8 mph 19.6 mph 0.00 in Snow Light Snow
4:37 AM 19.4 °F 7.2 °F 10.4 °F 68% 30.09 in 4.0 mi WNW 11.5 mph 20.7 mph 0.00 in Snow Light Snow
4:44 AM 19.4 °F 7.9 °F 12.2 °F 74% 30.09 in 2.5 mi WNW 10.4 mph - 0.00 in Snow Light Snow
4:53 AM 19.9 °F 5.7 °F 12.0 °F 71% 30.13 in 3.0 mi WNW 16.1 mph 21.9 mph 0.00 in Snow Light Snow
5:26 AM 19.4 °F 6.0 °F 10.4 °F 68% 30.10 in 3.0 mi NW 13.8 mph 25.3 mph 0.00 in Snow Light Snow
5:40 AM 19.4 °F 5.5 °F 12.2 °F 74% 30.11 in 2.5 mi WNW 15.0 mph 25.3 mph 0.00 in Snow Light Snow
5:53 AM 19.9 °F 7.3 °F 12.0 °F 71% 30.15 in 2.5 mi WNW 12.7 mph 23.0 mph 0.00 in Snow Light Snow
6:01 AM 19.4 °F 7.2 °F 12.2 °F 74% 30.12 in 5.0 mi NW 11.5 mph 20.7 mph 0.00 in Snow Light Snow
6:53 AM 19.9 °F 6.7 °F 12.0 °F 71% 30.17 in 1.8 mi NW 13.8 mph 24.2 mph 0.00 in Snow Light Snow
7:06 AM 19.4 °F 6.0 °F 12.2 °F 74% 30.13 in 2.0 mi NW 13.8 mph 23.0 mph 0.00 in Snow Light Snow
7:15 AM 19.4 °F 7.2 °F 14.0 °F 80% 30.14 in 1.2 mi NW 11.5 mph 18.4 mph 0.00 in Snow Light Snow
7:50 AM 19.4 °F 6.6 °F 14.0 °F 80% 30.15 in 0.8 mi NW 12.7 mph 24.2 mph 0.00 in Snow Light Snow
7:57 AM 19.4 °F 5.5 °F 12.2 °F 74% 30.15 in 2.0 mi NW 15.0 mph 24.2 mph 0.00 in Snow Light Snow
8:17 AM 21.2 °F 7.8 °F 12.2 °F 68% 30.16 in 3.0 mi NW 15.0 mph 20.7 mph 0.00 in Snow Light Snow
8:24 AM 19.4 °F 7.9 °F 12.2 °F 74% 30.16 in 4.0 mi NW 10.4 mph 19.6 mph 0.00 in Snow Light Snow
8:45 AM 21.2 °F 10.1 °F 12.2 °F 68% 30.17 in 2.5 mi NW 10.4 mph 18.4 mph 0.00 in Snow Light Snow
8:53 AM 21.0 °F 9.9 °F 12.0 °F 68% 30.20 in 2.0 mi NW 10.4 mph 19.6 mph 0.00 in Snow Light Snow
9:08 AM 21.2 °F 8.3 °F 12.2 °F 68% 30.17 in 3.0 mi NW 13.8 mph 19.6 mph 0.00 in Snow Light Snow
9:11 AM 21.2 °F 8.3 °F 12.2 °F 68% 30.17 in 2.0 mi NW 13.8 mph 20.7 mph 0.00 in Snow Light Snow
9:21 AM 21.2 °F 9.5 °F 14.0 °F 74% 30.17 in 2.0 mi NW 11.5 mph 21.9 mph 0.00 in Snow Light Snow
9:34 AM 21.2 °F 9.5 °F 12.2 °F 68% 30.17 in 3.0 mi NW 11.5 mph 21.9 mph 0.00 in Snow Light Snow
9:45 AM 21.2 °F 8.3 °F 14.0 °F 74% 30.17 in 1.8 mi NNW 13.8 mph 20.7 mph 0.00 in Snow Light Snow
9:49 AM 21.2 °F 10.1 °F 14.0 °F 74% 30.17 in 1.2 mi NW 10.4 mph 20.7 mph 0.00 in Snow Light Snow
9:53 AM 21.0 °F 10.6 °F 14.0 °F 74% 30.21 in 0.8 mi NW 9.2 mph 20.7 mph 0.00 in Snow Light Snow
10:05 AM 21.2 °F 8.3 °F 14.0 °F 74% 30.18 in 2.0 mi NNW 13.8 mph 19.6 mph 0.00 in Snow Light Snow
10:16 AM 21.2 °F 7.8 °F 12.2 °F 68% 30.18 in 3.0 mi NNW 15.0 mph 21.9 mph 0.00 in Snow Light Snow
10:21 AM 21.2 °F 9.5 °F 12.2 °F 68% 30.18 in 1.8 mi NNW 11.5 mph 21.9 mph 0.00 in Snow Light Snow
10:28 AM 21.2 °F 12.6 °F 12.2 °F 68% 30.18 in 3.0 mi NNW 6.9 mph 20.7 mph 0.00 in Snow Light Snow
10:53 AM 23.0 °F 11.1 °F 12.0 °F 63% 30.23 in 6.0 mi NNW 12.7 mph 21.9 mph 0.00 in Snow Light Snow
12:53 PM 23.0 °F 9.6 °F 12.9 °F 65% 30.25 in 7.0 mi NW 16.1 mph 23.0 mph 0.00 in Snow Light Snow
1:53 PM 23.0 °F 11.1 °F 12.9 °F 65% 30.26 in 4.0 mi NW 12.7 mph 23.0 mph 0.00 in Snow Light Snow
2:53 PM 24.1 °F 12.0 °F 14.0 °F 65% 30.26 in 6.0 mi NNW 13.8 mph 20.7 mph 0.00 in Snow Light Snow
3:53 PM 24.1 °F 13.7 °F 12.9 °F 62% 30.30 in 8.0 mi NNW 10.4 mph 24.2 mph 0.00 in   Overcast
4:53 PM 25.0 °F 12.6 °F 15.1 °F 66% 30.32 in 2.5 mi NW 15.0 mph 20.7 mph 0.00 in Snow Light Snow
5:01 PM 24.8 °F 14.0 °F 15.8 °F 69% 30.28 in 1.0 mi NW 11.5 mph 20.7 mph 0.00 in Snow Light Snow
5:06 PM 24.8 °F 14.6 °F 17.6 °F 74% 30.28 in 2.0 mi NW 10.4 mph 20.7 mph 0.00 in Snow Light Snow
5:16 PM 24.8 °F 15.3 °F 17.6 °F 74% 30.27 in 1.8 mi NW 9.2 mph - 0.00 in Snow Light Snow
5:20 PM 24.8 °F 14.6 °F 17.6 °F 74% 30.27 in 4.0 mi NW 10.4 mph - 0.00 in Snow Light Snow
5:47 PM 24.8 °F 13.4 °F 15.8 °F 69% 30.28 in 2.5 mi NNW 12.7 mph 23.0 mph 0.00 in Snow Light Snow
5:53 PM 24.1 °F 13.7 °F 16.0 °F 71% 30.32 in 3.0 mi NW 10.4 mph 19.6 mph 0.00 in Snow Light Snow
5:59 PM 24.8 °F 15.3 °F 15.8 °F 69% 30.28 in 1.8 mi NNW 9.2 mph - 0.00 in Snow Light Snow
6:16 PM 24.8 °F 13.4 °F 15.8 °F 69% 30.29 in 3.0 mi NNW 12.7 mph 21.9 mph 0.00 in Snow Light Snow
6:53 PM 24.1 °F 14.4 °F 14.0 °F 65% 30.33 in 9.0 mi NNW 9.2 mph - 0.00 in Snow Light Snow
7:53 PM 24.1 °F 16.0 °F 15.1 °F 69% 30.33 in 9.0 mi North 6.9 mph - 0.00 in Snow Light Snow
8:53 PM 24.1 °F 16.0 °F 12.9 °F 62% 30.33 in 10.0 mi NNW 6.9 mph 17.3 mph 0.00 in   Overcast
9:53 PM 25.0 °F 14.8 °F 12.9 °F 60% 30.33 in 10.0 mi North 10.4 mph 18.4 mph N/A   Overcast
11:53 PM 24.1 °F 15.2 °F 14.0 °F 65% 30.34 in 10.0 mi North 8.1 mph - N/A   Overcast